Location: Brachstadt
(48.6975°N, 10.6755°E)
Time: 06:01:45
(UTC+00:00)

OBJECT-B - Pass Details

Date: 18 September 2020
Orbit: 421 x 433 km, 97.0° (Epoch: 09 October)

Event Time Altitude Azimuth Distance (km) Brightness Sun altitude
Exits shadow 19:01:25 44° 97° (E) 598 1.0 -16.6°
Maximum altitude 19:01:47 47° 73° (ENE) 575 1.1 -16.7°
Drops below altitude 10° 19:04:56 10° 359° (N) 1,523 3.9 -17.2°
Sets 19:06:59 0° 353° (N) 2,396 5.0 -17.5°
